[[{"header":{"parameterUnit":"m.s-1","parameterCategory":1,"la1":30.2991,"la2":30.254,"lo1":-89.0895,"lo2":-89.0444,"dy":0.0017,"dx":0.0017,"nx":28,"ny":28,"refTime":"2024-08-24T09:00:00:Z","depth":0,"parameterNumber":2,"parameterNumberName":"U-component_of_WINDS"},"data":[0,0,0,0,0,0,0,0,0,0,0,0,0,0,0,0,0,0,0,0,0,0,0,0,0,0,0,0,0,0,0,0,0,0,0,0,0,0,0,0,0,0,0,0,0,0,0,0,0,0,0,0,0,0,0,0,0,0,-4.8899,-4.8899,0,-4.886,-4.886,-4.8859,-4.8725,-4.8722,-4.8719,-4.8716,-4.8679,-4.8681,-4.8683,0,0,0,0,0,0,0,0,0,0,0,0,0,-4.8862,-4.8864,-4.8899,-4.8899,-4.8898,-4.886,-4.886,-4.8859,-4.8725,-4.8722,-4.8718,-4.8714,-4.8678,-4.8681,-4.8683,0,0,0,0,0,0,0,0,0,0,0,0,0,-4.8857,-4.8864,-4.8899,-4.8827,-4.882,-4.886,-4.886,-4.8859,-4.8726,-4.8721,-4.8717,-4.8713,-4.8678,-4.868,-4.8683,-4.8791,0,0,-4.8692,-4.8693,0,0,0,0,0,0,0,0,-4.8857,-4.8858,-4.8838,-4.8832,-4.8824,-4.8792,-4.8833,-4.8836,-4.8727,-4.8762,-4.8716,-4.871,-4.8721,-4.872,-4.8722,-4.879,-4.8788,-4.8692,-4.8693,-4.8695,-4.8695,0,0,0,0,0,0,0,-4.8858,-4.8859,-4.8884,-4.8838,-4.883,-4.8798,-4.8792,-4.8833,-4.8767,-4.8758,-4.8749,-4.8746,-4.8716,-4.872,-4.872,-4.8787,-4.8692,-4.8694,-4.8696,-4.8697,-4.8944,-4.8949,0,0,0,0,0,0,-4.8868,-4.886,-4.8885,-4.8883,-4.883,-4.8802,-4.8795,-4.8807,-4.8766,-4.8756,-4.875,-4.8739,-4.8717,-4.8717,-4.8719,-4.8844,-4.8695,-4.8697,-4.8699,-4.8939,-4.8945,-4.8951,0,0,0,0,0,0,-4.8868,-4.8871,-4.8887,-4.8869,-4.8868,-4.8807,-4.8822,-4.8809,-4.8813,-4.876,-4.8748,-4.8765,-4.8714,-4.8715,-4.8775,-4.8841,-4.8698,-4.8701,-4.8934,-4.8941,-4.8948,-4.9096,0,0,0,0,0,0,-4.8867,-4.8872,-4.8912,-4.8871,-4.887,-4.8943,-4.8826,-4.8812,-4.8818,-4.8804,-4.8771,-4.8762,-4.871,-4.8771,-4.8777,-4.8842,-4.8703,-4.8927,-4.8937,-4.8946,-4.9085,-4.9108,-4.9127,0,0,0,0,0,-4.8866,-4.8955,-4.8914,-4.8918,-4.8918,-4.8946,-4.8946,-4.8884,-4.8823,-4.8863,-4.883,-4.8763,-4.8833,-4.8778,-4.8784,-4.8851,-4.8923,-4.8934,-4.8945,-4.9076,-4.9103,-4.9127,0,0,0,0,0,0,-4.9006,-4.8948,-4.8902,-4.898,-4.8969,-4.8924,-4.8972,-4.8915,-4.8922,-4.8909,-4.8833,-4.8827,-4.8898,-4.888,-4.8821,-4.8955,-4.8867,-4.888,-4.8964,-4.899,-4.9011,-4.9014,-4.8705,0,0,0,0,0,-4.9046,-4.9073,-4.9021,-4.9095,-4.9092,-4.9034,-4.9044,-4.8997,-4.8983,-4.8978,-4.8948,-4.8938,-4.8958,-4.8973,-4.8988,-4.9082,-4.9074,-4.9131,-4.9152,-4.9169,-4.9182,-4.9232,-4.9258,-4.8987,-4.8987,-4.8986,0,0,-4.9129,-4.91,-4.9122,-4.9123,-4.9108,-4.914,-4.903,-4.9068,-4.9091,-4.8984,-4.9039,-4.9017,-4.9001,-4.9079,-4.9112,-4.9066,-4.9255,-4.9183,-4.9198,-4.92,-4.9246,-4.9272,-4.9295,-4.8994,-4.8993,-4.8992,0,0,-4.9295,-4.9276,-4.9336,-4.9325,-4.9305,-4.9265,-4.928,-4.9244,-4.9225,-4.9279,-4.92,-4.9227,-4.9262,-4.9254,-4.9255,-4.9422,-4.9361,-4.9429,-4.9539,-4.9589,-4.961,-4.9629,-4.9691,-4.9713,-4.9441,-4.9441,-4.9441,0,-4.9401,-4.9444,-4.9375,-4.9418,-4.9421,-4.9325,-4.9387,-4.9379,-4.9366,-4.9372,-4.932,-4.9364,-4.9346,-4.9422,-4.9463,-4.9466,-4.9482,-4.9432,-4.9613,-4.9631,-4.9647,-4.9705,-4.9728,-4.945,-4.9449,-4.9448,-4.9447,0,-4.9576,-4.9607,-4.9658,-4.9648,-4.9657,-4.9709,-4.965,-4.9668,-4.9621,-4.9588,-4.9645,-4.962,-4.963,-4.9644,-4.9599,-4.9715,-4.9687,-4.9626,-4.9536,-4.9682,-4.9736,-4.9757,-4.9462,-4.9459,-4.9456,-4.9454,0,0,-4.983,-4.9781,-4.9801,-4.9796,-4.9768,-4.9791,-4.984,-4.9848,-4.9866,-4.9861,-4.9901,-4.9934,-4.9877,-4.9879,-4.9832,-4.9876,-5.0012,-4.9808,-4.9807,-4.9849,-5.0141,-5.0189,-5.0216,-4.9971,-4.9975,-4.9978,-5.0143,0,-4.999,-5.0069,-5.001,-5.0101,-5.013,-5.004,-5.0083,-5.0071,-5.0042,-5.0064,-5.0031,-5.0057,-4.9979,-4.9979,-5.0019,-4.9987,-5.007,-4.9974,-5.001,-5.0013,-5.0019,-5.0243,-5.0293,-5.045,-5.0163,-5.0167,-5.0169,0,-5.0187,-5.019,-5.0285,-5.0252,-5.0262,-5.0301,-5.0305,-5.0327,-5.0313,-5.0288,-5.0291,-5.0233,-5.028,-5.0191,-5.0257,-5.0194,-5.0205,-5.0192,-5.0197,-5.0199,-5.0101,-5.0253,-5.0498,-5.0523,-5.0201,-5.0198,-5.0196,0,-5.0366,-5.0393,-5.0453,-5.0452,-5.0414,-5.0445,-5.0431,-5.0412,-5.0422,-5.0426,-5.0432,-5.0442,-5.0448,-5.0458,-5.0405,-5.0345,-5.0479,-5.0385,-5.0462,-5.0464,-5.0496,-5.0495,-5.0748,-5.0501,-5.05,-5.05,-5.0499,0,-5.0551,-5.0613,-5.0533,-5.0571,-5.0638,-5.0569,-5.0638,-5.0615,-5.0599,-5.0632,-5.0554,-5.0587,-5.0514,-5.054,-5.0499,-5.0562,-5.0564,-5.0548,-5.0537,-5.0556,-5.0558,-5.0563,-5.0552,-5.0506,-5.0505,-5.0503,-5.0502,0,-5.0762,-5.0711,-5.0771,-5.0731,-5.0723,-5.0775,-5.0741,-5.0775,-5.0741,-5.0783,-5.0789,-5.0737,-5.0763,-5.0711,-5.073,-5.0703,-5.0792,-5.0762,-5.0797,-5.0789,-5.087,-5.0864,-5.1136,-5.117,-5.09,-5.0902,-5.0905,0,-5.0885,-5.0931,-5.0896,-5.0912,-5.0902,-5.0929,-5.0938,-5.0873,-5.0887,-5.0875,-5.0911,-5.0931,-5.0944,-5.0991,-5.0955,-5.097,-5.0942,-5.1037,-5.0944,-5.0963,-5.0946,-5.0945,-5.095,-5.1056,-5.106,-5.1062,-5.1064,0,-5.111,-5.1082,-5.1098,-5.1107,-5.1121,-5.1124,-5.1122,-5.114,-5.1071,-5.1091,-5.1116,-5.1126,-5.1147,-5.1169,-5.1176,-5.1163,-5.1104,-5.1094,-5.1113,-5.1134,-5.1153,-5.1146,-5.0851,-5.1088,-5.1086,-5.1084,-5.1083,-5.1082,-5.1281,-5.1318,-5.13,-5.1322,-5.1313,-5.1314,-5.1344,-5.1314,-5.1334,-5.1345,-5.1306,-5.1342,-5.1328,-5.1331,-5.1325,-5.1353,-5.1311,-5.1339,-5.1346,-5.1354,-5.1368,-5.1147,-5.1354,-5.1354,-5.1353,-5.1352,-5.1352,0,-5.1503,-5.1488,-5.1508,-5.1508,-5.1526,-5.1466,-5.1462,-5.1481,-5.1513,-5.1505,-5.1519,-5.1551,-5.1572,-5.1538,-5.1554,-5.1583,-5.1557,-5.159,-5.1588,-5.1587,-5.1404,-5.1386,-5.1611,-5.1611,-5.1611,-5.1611,-5.1611,-5.1611,-5.1621,-5.1681,-5.1653,-5.1709,-5.1692,-5.1726,-5.1729,-5.173,-5.1723,-5.1761,-5.1778,-5.1756,-5.1738,-5.1753,-5.177,-5.176,-5.1771,-5.1814,-5.1795,-5.1625,-5.1599,-5.1575,-5.1559,-5.1816,-5.1817,-5.1975,-5.1977,-5.1978]},{"header":{"parameterUnit":"m.s-1","parameterCategory":1,"la1":30.2991,"la2":30.254,"lo1":-89.0895,"lo2":-89.0444,"dy":0.0017,"dx":0.0017,"nx":28,"ny":28,"refTime":"2024-08-24T09:00:00:Z","depth":0,"parameterNumber":3,"parameterNumberName":"V-component_of_WINDS"},"data":[0,0,0,0,0,0,0,0,0,0,0,0,0,0,0,0,0,0,0,0,0,0,0,0,0,0,0,0,0,0,0,0,0,0,0,0,0,0,0,0,0,0,0,0,0,0,0,0,0,0,0,0,0,0,0,0,0,0,-0.6077,-0.6078,0,-0.6097,-0.6097,-0.6098,-0.6082,-0.6082,-0.6081,-0.608,-0.6102,-0.6103,-0.6104,0,0,0,0,0,0,0,0,0,0,0,0,0,-0.6028,-0.6029,-0.6077,-0.6078,-0.6078,-0.6097,-0.6097,-0.6098,-0.6082,-0.6082,-0.6081,-0.608,-0.6101,-0.6103,-0.6104,0,0,0,0,0,0,0,0,0,0,0,0,0,-0.6048,-0.6029,-0.6077,-0.6073,-0.6072,-0.6097,-0.6097,-0.6098,-0.6083,-0.6082,-0.6081,-0.608,-0.6101,-0.6103,-0.6104,-0.6135,0,0,-0.611,-0.6111,0,0,0,0,0,0,0,0,-0.6047,-0.605,-0.6073,-0.6073,-0.6073,-0.6086,-0.6088,-0.611,-0.6083,-0.6079,-0.608,-0.6079,-0.6097,-0.6099,-0.6105,-0.6136,-0.6137,-0.611,-0.6111,-0.6112,-0.6112,0,0,0,0,0,0,0,-0.6046,-0.6049,-0.6085,-0.6073,-0.6073,-0.607,-0.6072,-0.6092,-0.6094,-0.6079,-0.6078,-0.608,-0.6097,-0.6104,-0.6106,-0.6137,-0.611,-0.6111,-0.6113,-0.6113,-0.6195,-0.6197,0,0,0,0,0,0,-0.6045,-0.6048,-0.6085,-0.6086,-0.6057,-0.6072,-0.6074,-0.6083,-0.6093,-0.6094,-0.6081,-0.608,-0.6101,-0.6104,-0.6106,-0.6144,-0.6112,-0.6113,-0.6114,-0.6194,-0.6196,-0.6197,0,0,0,0,0,0,-0.6044,-0.6048,-0.6084,-0.6067,-0.6071,-0.6073,-0.6084,-0.6084,-0.609,-0.6095,-0.6095,-0.6088,-0.61,-0.6104,-0.6128,-0.6145,-0.6114,-0.6116,-0.6193,-0.6195,-0.6196,-0.622,0,0,0,0,0,0,-0.6042,-0.6048,-0.6059,-0.6067,-0.6072,-0.6105,-0.6085,-0.6085,-0.6093,-0.6091,-0.6101,-0.6102,-0.61,-0.6126,-0.613,-0.6147,-0.6117,-0.6192,-0.6194,-0.6196,-0.6218,-0.6222,-0.6226,0,0,0,0,0,-0.6041,-0.6065,-0.606,-0.6065,-0.6086,-0.6106,-0.6109,-0.6106,-0.6095,-0.6107,-0.611,-0.6101,-0.6142,-0.6128,-0.6133,-0.6151,-0.6191,-0.6193,-0.6196,-0.6216,-0.6221,-0.6226,0,0,0,0,0,0,-0.606,-0.6066,-0.6061,-0.6088,-0.6097,-0.6104,-0.6119,-0.6112,-0.6124,-0.6122,-0.6118,-0.6121,-0.6147,-0.6151,-0.6135,-0.6181,-0.6164,-0.6168,-0.6178,-0.6183,-0.6187,-0.6187,-0.6119,0,0,0,0,0,-0.6067,-0.6082,-0.6087,-0.6111,-0.6116,-0.6116,-0.6125,-0.6122,-0.6131,-0.6134,-0.6139,-0.6148,-0.6163,-0.6173,-0.6187,-0.6217,-0.622,-0.6232,-0.6236,-0.6239,-0.6243,-0.6261,-0.6266,-0.6205,-0.6205,-0.6205,0,0,-0.6083,-0.6088,-0.6098,-0.6115,-0.6121,-0.6138,-0.6119,-0.6137,-0.615,-0.6137,-0.6161,-0.6164,-0.6174,-0.6202,-0.6215,-0.6207,-0.626,-0.6242,-0.6245,-0.6247,-0.6264,-0.627,-0.6275,-0.6207,-0.6207,-0.6206,0,0,-0.612,-0.6125,-0.6146,-0.6152,-0.6162,-0.6162,-0.6167,-0.6175,-0.6177,-0.62,-0.6192,-0.6206,-0.6232,-0.6239,-0.6247,-0.6287,-0.628,-0.6291,-0.6313,-0.6331,-0.6336,-0.634,-0.6356,-0.6361,-0.6294,-0.6294,-0.6294,0,-0.6138,-0.6162,-0.6158,-0.6176,-0.6185,-0.6173,-0.6195,-0.6202,-0.6216,-0.6222,-0.6212,-0.6244,-0.625,-0.628,-0.629,-0.6295,-0.6302,-0.6291,-0.6335,-0.6339,-0.6343,-0.6358,-0.6364,-0.6296,-0.6296,-0.6295,-0.6295,0,-0.6185,-0.6202,-0.6218,-0.6231,-0.6241,-0.6261,-0.626,-0.6271,-0.6267,-0.6268,-0.6293,-0.6299,-0.6315,-0.6321,-0.6317,-0.6351,-0.6346,-0.6335,-0.6319,-0.6351,-0.6365,-0.637,-0.6298,-0.6297,-0.6297,-0.6297,0,0,-0.6236,-0.6246,-0.6253,-0.6259,-0.6269,-0.6282,-0.6301,-0.6316,-0.6326,-0.6335,-0.6353,-0.6374,-0.6365,-0.6373,-0.637,-0.6385,-0.6418,-0.6373,-0.6373,-0.6383,-0.6457,-0.6466,-0.6473,-0.6413,-0.6414,-0.6415,-0.6457,0,-0.6275,-0.6309,-0.6306,-0.6339,-0.6355,-0.6344,-0.6361,-0.637,-0.6371,-0.6385,-0.6387,-0.6403,-0.6389,-0.6394,-0.6408,-0.6411,-0.6433,-0.6408,-0.643,-0.6431,-0.643,-0.648,-0.6489,-0.6529,-0.6462,-0.6463,-0.6464,0,-0.6325,-0.6337,-0.6372,-0.6379,-0.6386,-0.6401,-0.6415,-0.6428,-0.6437,-0.6437,-0.6447,-0.6441,-0.6461,-0.6443,-0.6472,-0.6454,-0.6463,-0.6466,-0.6467,-0.6471,-0.6451,-0.6486,-0.6541,-0.6548,-0.6472,-0.6471,-0.6471,0,-0.6361,-0.6385,-0.6409,-0.6415,-0.6424,-0.6435,-0.644,-0.6447,-0.6457,-0.6469,-0.6475,-0.6489,-0.6497,-0.6508,-0.6507,-0.6493,-0.6536,-0.6517,-0.6538,-0.6539,-0.655,-0.6549,-0.6608,-0.6552,-0.6552,-0.6552,-0.6552,0,-0.6406,-0.6428,-0.6426,-0.6441,-0.6465,-0.6461,-0.6485,-0.6488,-0.6495,-0.6511,-0.6502,-0.6517,-0.6513,-0.6529,-0.6527,-0.6552,-0.6556,-0.6557,-0.6557,-0.6559,-0.6559,-0.6566,-0.6564,-0.6553,-0.6553,-0.6553,-0.6552,0,-0.6451,-0.645,-0.6476,-0.6482,-0.6484,-0.6503,-0.6508,-0.6523,-0.6523,-0.6543,-0.6548,-0.6549,-0.6566,-0.6566,-0.6585,-0.6584,-0.6616,-0.6611,-0.6613,-0.6613,-0.6634,-0.6633,-0.6701,-0.6711,-0.6647,-0.6647,-0.6648,0,-0.6481,-0.6498,-0.6506,-0.6516,-0.6521,-0.6537,-0.6546,-0.6542,-0.6553,-0.6564,-0.6577,-0.6594,-0.6607,-0.6635,-0.6638,-0.6653,-0.6651,-0.6673,-0.6653,-0.6655,-0.6653,-0.6653,-0.6655,-0.6678,-0.6679,-0.6679,-0.668,0,-0.6535,-0.6533,-0.6547,-0.6561,-0.6573,-0.6583,-0.6593,-0.6602,-0.6599,-0.6611,-0.6628,-0.6638,-0.6658,-0.6675,-0.669,-0.6695,-0.6688,-0.6686,-0.6692,-0.6695,-0.6696,-0.6698,-0.6626,-0.6685,-0.6684,-0.6684,-0.6684,-0.6684,-0.6574,-0.6589,-0.6597,-0.6613,-0.662,-0.6629,-0.6644,-0.6646,-0.666,-0.6676,-0.6673,-0.6693,-0.6702,-0.672,-0.6726,-0.6742,-0.6734,-0.6743,-0.6745,-0.6748,-0.6751,-0.6692,-0.6745,-0.6745,-0.6744,-0.6744,-0.6744,0,-0.6629,-0.6633,-0.6648,-0.6662,-0.6675,-0.6665,-0.6676,-0.6687,-0.6705,-0.6714,-0.6727,-0.6747,-0.6764,-0.6768,-0.6783,-0.6796,-0.6793,-0.68,-0.68,-0.6802,-0.6756,-0.6751,-0.6802,-0.6802,-0.6802,-0.6802,-0.6802,-0.6802,-0.6659,-0.6684,-0.6684,-0.6712,-0.6716,-0.6736,-0.6743,-0.6752,-0.6759,-0.6782,-0.6796,-0.6798,-0.6805,-0.6821,-0.6836,-0.6836,-0.6844,-0.6853,-0.6852,-0.681,-0.6805,-0.6799,-0.6794,-0.6854,-0.6854,-0.6896,-0.6897,-0.6897]}]]